Regional Weather Roundup
Issued by NWS

Home | Current Version | Previous Version | Text Only | Print | Product List | Glossary On
Versions: 1 2 3 4 5 6 7 8 9 10 11 12 13 14 15 16 17 18 19 20 21 22 23 24 25 26 27 28 29 30 31 32 33 34 35 36 37 38 39 40 41 42 43 44 45 46 47 48 49 50
000
ASPQ40 PGUM 301114
RWRPQ
WEATHER ROUNDUP FOR THE MARIANAS AND MICRONESIA
NATIONAL WEATHER SERVICE TIYAN GU
900 PM CHST TUE JUN 30 2015

GUZ001>004-301200-
MARIANA ISLANDS-

CITY           SKY/WX    TMP DP  RH WIND       PRES   REMARKS
GUAM AIRPORT   CLEAR     82  75  78 NE9       29.84S
ANDERSEN AFB   PTCLDY    81  75  83 E12       29.85R
ROTA AIRPORT   NOT AVBL
TINIAN AP      NOT AVBL
SAIPAN AP      CLEAR     81  75  83 E9        29.84R

$$

PMZ161-301200-
REPUBLIC OF PALAU-

CITY           SKY/WX    TMP DP  RH WIND       PRES   REMARKS
KOROR AP       CLOUDY    81  75  83 SW7       29.83R
KOROR WSO      CLOUDY    81  75  83 SW10      29.82R

$$

PMZ171>174-301200-
FEDERATED STATES OF MICRONESIA-

CITY           SKY/WX    TMP DP  RH WIND       PRES   REMARKS
YAP AIRPORT    MOCLDY    82  77  83 VRB3      29.82R HX  91
CHUUK AP       LGT RAIN  81  77  89 SW14      29.79R
POHNPEI AP     NOT AVBL
POHNPEI WSO    CLOUDY    79  77  94 W5        29.81F
KOSRAE AP      NOT AVBL

$$

PMZ181-301200-
REPUBLIC OF THE MARSHALL ISLANDS-

CITY           SKY/WX    TMP DP  RH WIND       PRES   REMARKS
KWAJALEIN AP   MOCLDY    79  75  89 SE14      29.83F
MAJURO AP      NOT AVBL
MAJURO WSO     MOCLDY    84  79  84 NE9       29.82S HX  96

$$



USA.gov is the U.S. government's official web portal to all federal, state and local government web resources and services.